Dover AFB, DE

4:22 PM EDT on April 26, 2017 (GMT -0400)
Dover Air Force Base

Weather History for KDOV - December, 2012

Change the Weather History Date:

Saturday, December 1, 2012

  Actual Average Record
Temperature  
Mean Temperature 44 °F -  
Max Temperature 56 °F 51 °F 73 °F (2006)
Min Temperature 32 °F 34 °F 13 °F (1976)
Degree Days  
Heating Degree Days 21    
Moisture  
Dew Point 38 °F    
Average Humidity 98    
Maximum Humidity 100    
Minimum Humidity 67    
Precipitation  
Precipitation 0.00 in - - ()
Sea Level Pressure  
Sea Level Pressure 30.39 in    
Wind  
Wind Speed 3 mph (NE)    
Max Wind Speed 10 mph    
Max Gust Speed -    
Visibility 2 miles    
Events Fog    
Averages and records for this station are not official NWS values.
T = Trace of Precipitation, MM = Missing Value Source: NWS Daily Summary

Daily Weather History Graph

Daily Weather History Graph

Search for Another Location

Airport or City:

Trip Planner

Search our weather history database for the weather conditions in past years. The results will help you decide how hot, cold, wet, or windy it might be!

Date:

Astronomy

Dec. 01, 2012 Rise Set
Actual Time 7:02 AM EST 4:39 PM EST
Civil Twilight 6:32 AM EST 5:09 PM EST
Nautical Twilight 5:59 AM EST 5:42 PM EST
Astronomical Twilight 5:27 AM EST 6:14 PM EST
Moon 7:26 PM EST (12/1) 9:14 AM EST (12/1)
Length of Visible Light 10h 36m
Length of Day
9h 36m
Waning Gibbous, 92% of the Moon is Illuminated
Dec 1
Waning Gibbous
Dec 6
Last Quarter
Dec 13
New
Dec 20
First Quarter
Dec 28
Full

Hourly Weather History & Observations

Time (EST) Temp. Windchill Dew Point Humidity Pressure Visibility Wind Dir Wind Speed Gust Speed Precip Events Conditions
12:10 AM 41.0 °F - 41.0 °F 100% 30.36 in 1.8 mi Calm Calm - N/A   Overcast
12:13 AM 41.0 °F - 41.0 °F 100% 30.36 in 1.8 mi Calm Calm - N/A   Overcast
12:14 AM 41.0 °F - 41.0 °F 100% 30.36 in 2.0 mi Calm Calm - N/A   Overcast
12:22 AM 41.0 °F - 39.2 °F 93% 30.36 in 1.5 mi Calm Calm - N/A   Overcast
12:23 AM 39.2 °F - 39.2 °F 100% 30.36 in 1.0 mi Calm Calm - N/A   Overcast
12:24 AM 39.2 °F - 39.2 °F 100% 30.36 in 0.8 mi Calm Calm - N/A   Mostly Cloudy
12:26 AM 37.4 °F - 37.4 °F 100% 30.36 in 0.5 mi Calm Calm - N/A Fog Fog
12:28 AM 37.4 °F - 37.4 °F 100% 30.36 in 0.2 mi Calm Calm - N/A Fog Fog
12:29 AM 37.4 °F - 37.4 °F 100% 30.36 in 0.2 mi Calm Calm - N/A Fog Fog
12:30 AM 37.4 °F 34.9 °F 37.4 °F 100% 30.36 in 0.2 mi NNW 3.5 mph - N/A Fog Fog
12:31 AM 37.4 °F 34.9 °F 35.6 °F 93% 30.36 in 0.2 mi NNW 3.5 mph - N/A Fog Fog
12:41 AM 35.6 °F - 35.6 °F 100% 30.36 in 0.2 mi Calm Calm - N/A Fog Fog
12:42 AM 35.6 °F - 35.6 °F 100% 30.36 in 0.2 mi Calm Calm - N/A Fog Fog
12:55 AM 35.6 °F 31.7 °F 35.4 °F 99% 30.36 in 0.2 mi North 4.6 mph - N/A Fog Fog
1:16 AM 33.8 °F 27.7 °F 33.8 °F 100% 30.37 in 0.2 mi North 6.9 mph - N/A Fog Fog
1:29 AM 33.8 °F 30.8 °F 33.8 °F 100% 30.37 in 0.2 mi North 3.5 mph - N/A Fog Fog
1:42 AM 33.8 °F 30.8 °F 33.8 °F 100% 30.37 in 0.2 mi NNE 3.5 mph - N/A Fog Fog
1:43 AM 33.8 °F 30.8 °F 33.8 °F 100% 30.37 in 0.5 mi NNE 3.5 mph - N/A Fog Fog
1:51 AM 33.8 °F - 33.8 °F 100% 30.37 in 0.5 mi Calm Calm - N/A Fog Fog
1:53 AM 33.8 °F - 33.8 °F 100% 30.37 in 0.8 mi Calm Calm - N/A   Mostly Cloudy
1:55 AM 34.0 °F - 33.8 °F 99% 30.37 in 0.8 mi Calm Calm - 0.00 in   Mostly Cloudy
1:56 AM 33.8 °F 30.8 °F 33.8 °F 100% 30.37 in 0.5 mi North 3.5 mph - N/A Fog Fog
2:02 AM 33.8 °F 30.8 °F 33.8 °F 100% 30.37 in 0.5 mi NNE 3.5 mph - N/A Fog Fog
2:12 AM 33.8 °F - 33.8 °F 100% 30.37 in 0.5 mi Calm Calm - N/A Fog Fog
2:18 AM 33.8 °F - 33.8 °F 100% 30.37 in 0.8 mi Calm Calm - N/A   Scattered Clouds
2:28 AM 35.6 °F 32.8 °F 35.6 °F 100% 30.36 in 0.5 mi ESE 3.5 mph - N/A Fog Fog
2:31 AM 37.4 °F - 35.6 °F 93% 30.36 in 0.8 mi Calm Calm - N/A   Mostly Cloudy
2:33 AM 35.6 °F - 35.6 °F 100% 30.37 in 0.5 mi Calm Calm - N/A Fog Fog
2:41 AM 35.6 °F - 35.6 °F 100% 30.37 in 0.5 mi Calm Calm - N/A Fog Fog
2:52 AM 35.6 °F 32.8 °F 35.6 °F 100% 30.37 in 0.8 mi NE 3.5 mph - N/A   Mostly Cloudy
2:53 AM 35.6 °F - 35.6 °F 100% 30.37 in 0.5 mi Calm Calm - N/A Fog Fog
2:55 AM 36.9 °F - 36.7 °F 99% 30.37 in 0.5 mi Calm Calm - N/A Fog Fog
2:58 AM 37.4 °F - 37.4 °F 100% 30.37 in 0.5 mi Calm Calm - N/A Fog Fog
3:02 AM 37.4 °F 34.9 °F 37.4 °F 100% 30.37 in 0.2 mi East 3.5 mph - N/A Fog Fog
3:03 AM 37.4 °F 34.9 °F 37.4 °F 100% 30.36 in 0.2 mi East 3.5 mph - N/A Fog Fog
3:06 AM 37.4 °F 33.8 °F 37.4 °F 100% 30.36 in 0.2 mi East 4.6 mph - N/A Fog Fog
3:07 AM 37.4 °F 32.8 °F 37.4 °F 100% 30.36 in 0.2 mi East 5.8 mph - N/A Fog Fog
3:09 AM 37.4 °F 32.8 °F 37.4 °F 100% 30.36 in 0.5 mi East 5.8 mph - N/A Fog Fog
3:12 AM 37.4 °F 33.8 °F 37.4 °F 100% 30.36 in 0.5 mi ESE 4.6 mph - N/A Fog Fog
3:13 AM 37.4 °F 33.8 °F 37.4 °F 100% 30.36 in 0.5 mi East 4.6 mph - N/A Fog Fog
3:16 AM 37.4 °F 33.8 °F 37.4 °F 100% 30.35 in 0.8 mi East 4.6 mph - N/A   Mostly Cloudy
3:22 AM 39.2 °F 35.9 °F 37.4 °F 93% 30.36 in 0.5 mi East 4.6 mph - N/A Fog Fog
3:26 AM 37.4 °F 34.9 °F 37.4 °F 100% 30.36 in 0.5 mi East 3.5 mph - N/A Fog Fog
3:27 AM 37.4 °F 34.9 °F 37.4 °F 100% 30.36 in 0.2 mi East 3.5 mph - N/A Fog Fog
3:28 AM 37.4 °F 34.9 °F 37.4 °F 100% 30.36 in 0.2 mi East 3.5 mph - N/A Fog Fog
3:31 AM 37.4 °F - 37.4 °F 100% 30.37 in 0.2 mi Calm Calm - N/A Fog Fog
3:37 AM 37.4 °F 34.9 °F 37.4 °F 100% 30.37 in 0.2 mi North 3.5 mph - N/A Fog Fog
3:38 AM 37.4 °F 34.9 °F 37.4 °F 100% 30.37 in 0.2 mi North 3.5 mph - N/A Fog Fog
3:39 AM 37.4 °F 33.8 °F 37.4 °F 100% 30.37 in 0.5 mi North 4.6 mph - N/A Fog Fog
3:43 AM 37.4 °F 32.1 °F 37.4 °F 100% 30.37 in 0.8 mi North 6.9 mph - N/A   Overcast
3:45 AM 37.4 °F 32.1 °F 37.4 °F 100% 30.37 in 1.0 mi North 6.9 mph - N/A   Overcast
3:46 AM 37.4 °F 32.1 °F 37.4 °F 100% 30.37 in 1.2 mi North 6.9 mph - N/A   Overcast
3:47 AM 39.2 °F 34.2 °F 37.4 °F 93% 30.37 in 1.8 mi North 6.9 mph - N/A   Overcast
3:48 AM 39.2 °F 34.2 °F 39.2 °F 100% 30.37 in 2.0 mi North 6.9 mph - N/A   Overcast
3:55 AM 39.9 °F 35.1 °F 39.6 °F 99% 30.37 in 2.0 mi North 6.9 mph - N/A   Overcast
4:02 AM 39.2 °F 35.0 °F 39.2 °F 100% 30.36 in 1.8 mi North 5.8 mph - N/A   Overcast
4:08 AM 39.2 °F 35.0 °F 39.2 °F 100% 30.36 in 1.2 mi NNE 5.8 mph - N/A   Mostly Cloudy
4:11 AM 39.2 °F 35.0 °F 37.4 °F 93% 30.36 in 1.0 mi NNE 5.8 mph - N/A   Mostly Cloudy
4:14 AM 39.2 °F 35.0 °F 37.4 °F 93% 30.36 in 0.8 mi NNE 5.8 mph - N/A   Scattered Clouds
4:15 AM 39.2 °F 35.0 °F 37.4 °F 93% 30.36 in 0.8 mi NNE 5.8 mph - N/A   Scattered Clouds
4:16 AM 39.2 °F 35.0 °F 37.4 °F 93% 30.36 in 0.5 mi NNE 5.8 mph - N/A Fog Fog
4:20 AM 37.4 °F 33.8 °F 37.4 °F 100% 30.36 in 0.2 mi North 4.6 mph - N/A Fog Fog
4:22 AM 37.4 °F 33.8 °F 37.4 °F 100% 30.36 in 0.2 mi North 4.6 mph - N/A Fog Fog
4:24 AM 37.4 °F 33.8 °F 37.4 °F 100% 30.36 in 0.2 mi North 4.6 mph - N/A Fog Fog
4:55 AM 36.9 °F 32.2 °F 36.7 °F 99% 30.36 in 0.2 mi NNE 5.8 mph - N/A Fog Fog
4:56 AM 37.4 °F 33.8 °F 37.4 °F 100% 30.36 in 0.2 mi NNE 4.6 mph - N/A Fog Fog
4:57 AM 37.4 °F 32.8 °F 37.4 °F 100% 30.36 in 0.5 mi NNE 5.8 mph - N/A Fog Fog
5:01 AM 37.4 °F 32.8 °F 37.4 °F 100% 30.36 in 0.5 mi NE 5.8 mph - N/A Fog Fog
5:02 AM 37.4 °F 33.8 °F 37.4 °F 100% 30.36 in 0.5 mi NE 4.6 mph - N/A Fog Fog
5:03 AM 37.4 °F 33.8 °F 37.4 °F 100% 30.37 in 0.8 mi NE 4.6 mph - N/A   Clear
5:07 AM 37.4 °F 34.9 °F 37.4 °F 100% 30.37 in 1.0 mi NE 3.5 mph - N/A   Clear
5:09 AM 37.4 °F 34.9 °F 37.4 °F 100% 30.37 in 1.2 mi NE 3.5 mph - N/A   Clear
5:11 AM 37.4 °F - 37.4 °F 100% 30.37 in 1.5 mi Calm Calm - N/A   Clear
5:12 AM 37.4 °F - 37.4 °F 100% 30.37 in 1.2 mi Calm Calm - N/A   Clear
5:13 AM 37.4 °F - 37.4 °F 100% 30.37 in 1.0 mi Calm Calm - N/A   Clear
5:15 AM 37.4 °F - 37.4 °F 100% 30.37 in 0.8 mi Calm Calm - N/A   Clear
5:18 AM 37.4 °F - 37.4 °F 100% 30.38 in 0.5 mi Calm Calm - N/A Fog Fog
5:21 AM 37.4 °F 32.8 °F 37.4 °F 100% 30.38 in 0.5 mi NNW 5.8 mph - N/A Fog Fog
5:22 AM 37.4 °F 32.1 °F 37.4 °F 100% 30.38 in 0.2 mi NNW 6.9 mph - N/A Fog Fog
5:28 AM 35.6 °F 30.7 °F 35.6 °F 100% 30.38 in 0.5 mi North 5.8 mph - N/A Fog Fog
5:41 AM 35.6 °F 30.7 °F 35.6 °F 100% 30.38 in 0.2 mi North 5.8 mph - N/A Fog Fog
5:43 AM 35.6 °F 31.7 °F 35.6 °F 100% 30.39 in 0.2 mi North 4.6 mph - N/A Fog Fog
5:55 AM 34.5 °F 30.4 °F 34.2 °F 99% 30.40 in 0.2 mi North 4.6 mph - N/A Fog Fog
5:56 AM 33.8 °F 29.6 °F 33.8 °F 100% 30.39 in 0.2 mi North 4.6 mph - N/A Fog Fog
6:00 AM 33.8 °F 29.6 °F 33.8 °F 100% 30.39 in 0.5 mi North 4.6 mph - N/A Fog Fog
6:04 AM 33.8 °F 29.6 °F 33.8 °F 100% 30.40 in 0.2 mi North 4.6 mph - N/A Fog Fog
6:07 AM 35.6 °F 31.7 °F 33.8 °F 93% 30.39 in 0.2 mi North 4.6 mph - N/A Fog Fog
6:55 AM 33.3 °F 30.2 °F 32.9 °F 99% 30.40 in 0.2 mi NNE 3.5 mph - N/A Fog Fog
7:22 AM 32.0 °F 28.7 °F 30.2 °F 93% 30.41 in 0.2 mi NNE 3.5 mph - N/A Fog Light Freezing Fog
7:27 AM 32.0 °F 28.7 °F 32.0 °F 100% 30.42 in 0.2 mi North 3.5 mph - N/A Fog Light Freezing Fog
7:30 AM 32.0 °F 27.5 °F 32.0 °F 100% 30.42 in 0.2 mi North 4.6 mph - N/A Fog Light Freezing Fog
7:35 AM 32.0 °F 27.5 °F 32.0 °F 100% 30.42 in 0.5 mi North 4.6 mph - N/A Fog Fog
7:42 AM 33.8 °F 29.6 °F 33.8 °F 100% 30.42 in 0.2 mi North 4.6 mph - N/A Fog Fog
7:48 AM 33.8 °F 29.6 °F 33.8 °F 100% 30.42 in 0.2 mi NE 4.6 mph - N/A Fog Fog
7:50 AM 33.8 °F 29.6 °F 33.8 °F 100% 30.42 in 0.2 mi NE 4.6 mph - N/A Fog Fog
7:55 AM 33.8 °F 30.8 °F 33.6 °F 99% 30.42 in 0.2 mi NNE 3.5 mph - N/A Fog Fog
8:00 AM 33.8 °F 30.8 °F 33.8 °F 100% 30.42 in 0.2 mi ENE 3.5 mph - N/A Fog Fog
8:01 AM 33.8 °F 29.6 °F 33.8 °F 100% 30.42 in 0.2 mi ENE 4.6 mph - N/A Fog Fog
8:02 AM 33.8 °F 29.6 °F 33.8 °F 100% 30.42 in 0.2 mi ENE 4.6 mph - N/A Fog Fog
8:03 AM 33.8 °F 29.6 °F 33.8 °F 100% 30.42 in 0.2 mi ENE 4.6 mph - N/A Fog Fog
8:04 AM 33.8 °F 29.6 °F 33.8 °F 100% 30.42 in 0.5 mi ENE 4.6 mph - N/A Fog Fog
8:07 AM 35.6 °F 31.7 °F 35.6 °F 100% 30.42 in 0.8 mi ENE 4.6 mph - N/A   Clear
8:09 AM 35.6 °F - 35.6 °F 100% 30.42 in 1.0 mi Calm Calm - N/A   Clear
8:10 AM 35.6 °F - 35.6 °F 100% 30.42 in 1.2 mi Calm Calm - N/A   Clear
8:12 AM 35.6 °F - 35.6 °F 100% 30.43 in 1.5 mi Calm Calm - N/A   Clear
8:16 AM 35.6 °F - 35.6 °F 100% 30.43 in 2.0 mi Calm Calm - N/A   Clear
8:20 AM 35.6 °F - 35.6 °F 100% 30.43 in 3.0 mi Calm Calm - N/A   Clear
8:55 AM 43.3 °F 39.2 °F 43.3 °F 100% 30.43 in 10.0 mi NE 6.9 mph - N/A   Clear
9:55 AM 46.4 °F 44.3 °F 46.4 °F 100% 30.44 in 10.0 mi East 4.6 mph - N/A   Clear
10:55 AM 49.5 °F - 45.5 °F 86% 30.43 in 10.0 mi NE 3.5 mph - N/A   Clear
11:55 AM 52.9 °F - 45.0 °F 74% 30.41 in 10.0 mi ENE 3.5 mph - N/A   Clear
12:55 PM 55.4 °F - 45.5 °F 69% 30.40 in 10.0 mi ESE 4.6 mph - N/A   Clear
1:55 PM 56.3 °F - 45.3 °F 67% 30.38 in 10.0 mi SE 6.9 mph - N/A   Clear
2:55 PM 55.2 °F - 44.8 °F 68% 30.37 in 10.0 mi ESE 5.8 mph - N/A   Clear
3:55 PM 53.2 °F - 44.2 °F 72% 30.38 in 10.0 mi East 4.6 mph - N/A   Clear
4:55 PM 48.9 °F - 43.5 °F 82% 30.39 in 10.0 mi Calm Calm - N/A   Clear
5:55 PM 44.8 °F - 43.3 °F 95% 30.40 in 10.0 mi Calm Calm - N/A   Clear
6:55 PM 41.5 °F 38.6 °F 41.2 °F 99% 30.41 in 10.0 mi North 4.6 mph - N/A   Clear
7:25 PM 41.0 °F 37.1 °F 39.2 °F 93% 30.41 in 8.0 mi North 5.8 mph - N/A   Clear
7:28 PM 41.0 °F 36.4 °F 39.2 °F 93% 30.42 in 8.0 mi North 6.9 mph - N/A   Clear
7:55 PM 38.8 °F 35.4 °F 38.7 °F 99% 30.42 in 10.0 mi North 4.6 mph - N/A   Clear
8:34 PM 39.2 °F 37.0 °F 39.2 °F 100% 30.42 in 8.0 mi ENE 3.5 mph - N/A   Clear
8:55 PM 40.5 °F 38.4 °F 40.3 °F 99% 30.41 in 7.0 mi East 3.5 mph - N/A   Clear
9:00 PM 41.0 °F 39.0 °F 41.0 °F 100% 30.42 in 8.0 mi ENE 3.5 mph - N/A   Clear
9:10 PM 41.0 °F 37.1 °F 41.0 °F 100% 30.41 in 8.0 mi ENE 5.8 mph - N/A   Clear
9:12 PM 41.0 °F 37.1 °F 41.0 °F 100% 30.42 in 7.0 mi ENE 5.8 mph - N/A   Partly Cloudy
9:21 PM 41.0 °F 36.4 °F 41.0 °F 100% 30.41 in 5.0 mi East 6.9 mph - N/A   Mostly Cloudy
9:28 PM 41.0 °F 35.8 °F 41.0 °F 100% 30.41 in 3.0 mi East 8.1 mph - N/A   Mostly Cloudy
9:29 PM 42.8 °F 38.0 °F 41.0 °F 93% 30.41 in 2.0 mi East 8.1 mph - N/A   Mostly Cloudy
9:30 PM 42.8 °F 37.5 °F 42.8 °F 100% 30.41 in 1.5 mi East 9.2 mph - N/A   Mostly Cloudy
9:31 PM 42.8 °F 37.0 °F 42.8 °F 100% 30.41 in 1.2 mi East 10.4 mph - N/A   Mostly Cloudy
9:32 PM 42.8 °F 37.0 °F 42.8 °F 100% 30.41 in 1.0 mi East 10.4 mph - N/A   Mist
9:33 PM 42.8 °F 38.0 °F 42.8 °F 100% 30.41 in 0.8 mi East 8.1 mph - N/A   Mist
9:35 PM 42.8 °F 38.0 °F 42.8 °F 100% 30.41 in 0.5 mi East 8.1 mph - N/A Fog Fog
9:36 PM 42.8 °F 38.0 °F 42.8 °F 100% 30.41 in 0.5 mi East 8.1 mph - N/A Fog Fog
9:37 PM 42.8 °F 38.0 °F 42.8 °F 100% 30.41 in 0.5 mi East 8.1 mph - N/A Fog Fog
9:38 PM 44.6 °F 40.7 °F 42.8 °F 93% 30.41 in 0.5 mi East 6.9 mph - N/A Fog Fog
9:41 PM 44.6 °F 40.7 °F 42.8 °F 93% 30.42 in 0.2 mi East 6.9 mph - N/A Fog Fog
9:43 PM 44.6 °F 40.7 °F 42.8 °F 93% 30.42 in 0.2 mi East 6.9 mph - N/A Fog Fog
9:48 PM 44.6 °F 40.7 °F 42.8 °F 93% 30.42 in 0.2 mi East 6.9 mph - N/A Fog Fog
9:55 PM 43.5 °F 39.4 °F 43.5 °F 100% 30.42 in 0.2 mi East 6.9 mph - 0.00 in Fog Fog
9:58 PM 42.8 °F 38.6 °F 42.8 °F 100% 30.42 in 0.2 mi ESE 6.9 mph - N/A Fog Fog
10:02 PM 42.8 °F 37.5 °F 42.8 °F 100% 30.42 in 0.5 mi ESE 9.2 mph - N/A Fog Fog
10:45 PM 42.8 °F 37.5 °F 42.8 °F 100% 30.41 in 0.5 mi East 9.2 mph - N/A Fog Fog
10:55 PM 43.0 °F 38.2 °F 43.0 °F 100% 30.41 in 0.5 mi ESE 8.1 mph - 0.00 in Fog Fog
11:16 PM 42.8 °F 38.6 °F 42.8 °F 100% 30.41 in 0.5 mi ESE 6.9 mph - N/A Fog Fog
11:31 PM 42.8 °F 40.1 °F 42.8 °F 100% 30.42 in 0.2 mi SE 4.6 mph - N/A Fog Fog
11:32 PM 42.8 °F 40.1 °F 42.8 °F 100% 30.42 in 0.5 mi SE 4.6 mph - N/A Fog Fog
11:38 PM 42.8 °F 39.3 °F 42.8 °F 100% 30.42 in 0.2 mi SE 5.8 mph - N/A Fog Fog
11:39 PM 42.8 °F 39.3 °F 42.8 °F 100% 30.41 in 0.5 mi ESE 5.8 mph - N/A Fog Fog
11:53 PM 42.8 °F 40.1 °F 42.8 °F 100% 30.41 in 0.2 mi ESE 4.6 mph - N/A Fog Fog
11:55 PM 43.3 °F 41.7 °F 43.3 °F 100% 30.41 in 0.2 mi East 3.5 mph - N/A Fog Fog